EHI
0 0 0 0 0 0 0 0 0 0 0 0 0 0 0 0 0 0 0 0 0 0 0 0 0 0 0 0 0 0 0 0 0 0 0 0 0 0 0 0 0 0 0 0
0 0 0 0 0 0 0 0 0 0 0 0 0 0 0 0 0 0 0 0 0 0 0 0 0 0 0 0 0 0 0 0 0 0 0 0 0 0 0 0 0 0 0 0
0 0 0 0 0 0 0 0 0 0 0 0 0 0 0 0 0 0 0 0 0 0 0 0 0 0 0 0 0 0 0 0 0 0 0 0 0 0 0 0 0 0 0 0
0 0 0 0 0 0 0 0 0 0 0 0 0 0 0 0 0 0 0 0 0 0 0 0 0 0 0 0 0 0 0 0 0 0 0 0 0 0 0 0 0 0 0 0
0 0 0 0 0 0 0 0 0 0 0 0 0 0 0 0 0 0 0 0 0 0 0 0 0 0 0 0 0 0 0 0 0 0 0 0 0 0 0 0 0 0 0 0
0 0 0 0 0 0 0 0 0 0 0 0 0 0 0 0 0 0 0 0 0 0 0 0 0 0 0 0 0 0 0 0 0 0 0 0 0 0 0 0 0 0 0 0
0 0 0 0 0 0 0 0 0 0 0 0 0 0 0 0 0 0 0 0 0 0 0 0 0 0 0 0 0 0 0 0 0 0 0 0 0 0 0 0 0 0 0 0
0 0 0 0 0 0 0 0 0 0 0 0 0 0 0 0 0 0 0 0 0 0 0 0 0 0 0 0 0 0 0 0 0 0 0 0 0 0 0 0 0 0 0 0
0 0 0 0 0 0 0 0 0 0 0 0 0 0 0 0 0 0 0 0 0 0 0 0 0 0 0 0 0 0 0 0 0 0 0 0 0 0 0 0 0 0 0 0
0 0 0 0 0 0 0 0 0 0 0 0 0 0 0 0 0 0 0 0 0 0 0 0 0 0 0 0 0 0 0 0 0 0 0 0 0 0 0 0 0 0 0 0
0 0 0 0 0 0 0 0 0 0 0 0 0 0 0 0 0 0 0 0 0 0 0 0 0 0 0 0 0 0 0 0 0 0 0 0 0 0 0 0 0 0 0 0
0 0 0 0 0 0 0 0 0 0 0 0 0 0 0 0 0 0 0 0 0 0 0 0 0 0 0 0 0 0 0 0 0 0 0 0 0 0 0 0 0 0 0 0
0 0 0 0 0 0 0 0 0 0 0 0 0 0 0 0 0 0 0 0 0 0 0 0 0 0 0 0 0 0 0 0 0 0 0 0 0 0 0 0 0 0 0 0
0 0 0 0 0 0 0 0 0 0 0 0 0 0 0 0 0 0 0 0 0 0 0 0 0 0 0 0 0 0 0 0 0 0 0 0 0 0 0 0 0 0 0 0
0 0 0 0 0 0 0 0 0 0 0 0 0 0 0 0 0 0 0 0 0 0 0 0 0 0 0 0 0 0 0 0 0 0 0 0 0 0 0 0 0 0 0 0
0 0 0 0 0 0 0 0 0 0 0 0 0 0 0 0 0 0 0 0 0 0 0 0 0 0 0 0 0 0 0 0 0 0 0 0 0 0 0 0 0 0 0 0
0 0 0 0 0 0 0 0 0 0 0 0 0 0 0 0 0 0 0 0 0 0 0 0 0 0 0 0 0 0 0 0 0 0 0 0 0 0 0 0 0 0 0 0
0 0 0 0 0 0 0 0 0 0 0 0 0 0 0 0 0 0 0 0 0 0 0 0 0 0 0 0 0 0 0 0 0 0 0 0 0 0 0 0 0 0 0 0
0 0 0 0 0 0 0 0 0 0 0 0 0 0 0 0 0 0 0 0 0 0 0 0 0 0 0 0 0 0 0 0 0 0 0 0 0 0 0 0 0 0 0 0
0 0 0 0 0 0 0 0 0 0 0 0 0 0 0 0 0 0 0 0 0 0 0 0 0 0 0 0 0 0 0 0 0 0 0 0 0 0 0 0 0 0 0 0
0 0 0 0 0 0 0 0 0 0 0 0 0 0 0 0 0 0 0 0 0 0 0 0 0 0 0 0 0 0 0 0 0 0 0 0 0 0 0 0 0 0 0 0
0 0 0 0 0 0 0 0 0 0 0 0 0 0 0 0 0 0 0 0 0 0 0 0 0 0 0 0 0 0 0 0 0 0 0 0 0 0 0 0 0 0 0 0
0 0 0 0 0 0 0 0 0 0 0 0 0 0 0 0 0 0 0 0 0 0 0 0 0 0 0 0 0 0 0 0 0 0 0 0 0 0 0 0 0 0 0 0
0 0 0 0 0 0 0 0 0 0 0 0 0 0 0 0 0 0 0 0 0 0 0 0 0 0 0 0 0 0 0 0 0 0 0 0 0 0 0 0 0 0 0 0
0 0 0 0 0 0 0 0 0 0 0 0 0 0 0 0 0 0 0 0 0 0 0 0 0 0 0 0 0 0 0 0 0 0 0 0 0 0 0 0 0 0 0 0
0 0 0 0 0 0 0 0 0 0 0 0 0 0 0 0 0 0 0 0 0 0 0 0 0 0 0 0 0 0 0 0 0 0 0 0 0 0 0 0 0 0 0 0
0 0 0 0 0 0 0 0 0 0 0 0 0 0 0 0 0 0 0 0 0 0 0 0 0 0 0 0 0 0 0 0 0 0 0 0 0 0 0 0 0 0 0 0
Wind_Speed
6 2 2 4 5 5 6 6 5 5 4 3 5 5 6 7 7 7 7 7 7 7 7 8 8 9 9 10 11 12 12 12 11 11 11 11 12 12 12 12 14 12 11 12
5 2 2 6 8 7 7 6 7 7 3 6 4 5 6 7 7 6 6 7 7 8 8 9 9 9 10 10 11 11 12 12 11 11 11 12 12 11 12 11 11 10 11 12
5 2 4 7 5 9 5 5 4 3 1 4 4 5 5 7 6 5 5 6 7 7 7 8 8 9 10 11 12 12 11 11 10 11 12 11 12 11 11 10 10 10 10 10
4 6 6 3 3 1 4 4 4 1 2 4 4 6 8 8 5 5 5 5 6 6 7 7 7 7 8 10 12 12 11 9 10 11 11 10 10 10 9 8 9 8 9 10
1 4 10 2 2 2 3 4 4 3 3 5 5 3 5 5 5 4 4 4 5 5 6 7 7 8 9 11 11 10 9 10 11 11 10 10 10 9 9 8 8 8 9 10
2 3 7 2 5 3 2 4 4 5 4 4 4 1 1 3 4 4 4 4 5 6 6 7 7 8 9 11 11 10 11 12 12 11 10 10 10 9 9 9 9 10 10 10
5 6 10 3 6 5 3 4 7 6 6 4 3 3 4 5 5 4 4 5 5 6 6 6 8 8 9 10 10 11 11 12 11 10 10 9 8 8 9 9 10 10 10 10
4 6 11 7 7 7 5 6 7 7 6 6 6 7 6 5 4 3 4 5 6 6 7 7 8 8 9 9 10 10 11 12 11 10 10 10 8 8 8 9 9 9 9 10
8 9 3 7 5 4 7 7 7 6 7 7 6 6 6 4 3 3 4 5 5 6 7 8 8 7 8 9 10 11 12 11 11 10 8 8 8 7 7 7 7 8 8 9
6 5 6 6 6 6 6 8 9 8 8 7 6 7 5 3 2 3 4 4 5 6 7 9 8 7 7 8 9 11 12 11 10 9 8 8 7 7 7 7 7 7 8 8
6 2 5 6 7 7 9 11 10 9 7 7 8 7 5 3 3 2 3 4 5 6 7 8 8 8 8 8 9 10 10 9 9 9 8 7 8 8 10 6 10 8 5 5
7 7 8 8 10 10 11 10 10 10 8 7 7 6 5 4 2 1 3 4 5 6 7 7 8 8 8 8 9 10 10 9 7 7 7 7 6 7 15 17 19 18 16 12
3 4 5 9 11 10 9 9 9 8 8 8 7 6 5 3 1 1 3 4 5 6 7 7 7 8 8 9 10 10 9 8 7 8 7 7 8 7 7 11 16 17 18 16
8 8 7 6 8 10 10 10 9 9 8 7 7 6 5 3 1 2 3 4 5 6 6 6 7 8 9 9 11 10 8 10 9 6 6 6 6 6 6 7 7 6 11 16
6 5 7 8 11 12 12 11 11 8 8 7 6 6 5 3 1 2 4 5 5 5 5 6 7 8 9 10 11 10 8 6 6 5 5 5 5 5 5 6 6 6 5 8
7 8 10 12 13 12 12 12 10 10 8 7 6 6 5 3 2 4 4 2 3 5 5 6 6 8 10 10 10 8 7 14 12 7 5 6 5 5 5 5 6 5 5 5
13 11 11 14 14 13 12 10 10 11 9 9 8 7 5 3 3 3 1 3 4 5 5 4 6 9 9 8 8 6 6 8 14 9 6 6 5 5 5 5 5 6 5 8
12 11 13 17 16 14 11 10 10 10 9 8 8 7 6 5 3 1 3 4 5 5 3 3 6 7 7 7 6 5 5 5 6 6 6 6 7 6 6 6 7 7 6 8
9 10 11 11 12 12 12 10 10 10 9 10 9 8 6 4 2 1 2 4 4 4 4 5 11 7 7 9 11 4 5 6 7 6 6 11 10 7 7 7 8 8 8 8
9 10 11 11 11 10 11 10 11 10 9 9 8 7 6 4 3 2 2 4 4 3 5 6 5 5 6 8 11 4 5 6 7 7 7 7 8 9 9 9 9 9 8 8
11 11 12 12 11 10 11 12 13 12 10 10 9 8 7 5 4 3 2 3 2 2 5 7 4 5 6 8 9 5 5 6 6 7 8 8 9 10 10 10 11 11 10 10
11 12 13 12 12 11 9 9 10 11 10 9 8 7 6 5 4 4 5 4 3 5 3 2 3 7 9 9 4 5 5 6 6 7 7 8 9 10 10 11 11 11 11 11
11 11 13 13 13 11 10 9 10 11 11 11 10 9 7 6 5 4 3 3 2 4 3 2 5 9 11 5 4 5 5 5 6 7 8 8 8 9 10 11 11 11 11 12
11 12 11 10 11 11 11 9 8 8 8 8 8 8 7 5 4 4 3 2 3 4 2 3 6 8 8 3 4 4 5 5 5 6 7 7 8 8 9 10 11 11 11 13
12 12 12 14 13 10 10 9 9 7 7 6 6 7 5 4 3 3 3 3 4 4 2 3 4 5 4 3 3 4 4 5 6 6 6 7 8 9 9 10 11 11 11 12
11 12 11 11 9 9 10 10 9 8 9 8 7 7 6 5 4 3 3 3 5 5 3 2 2 2 2 2 3 4 4 5 6 6 7 7 8 9 9 11 13 11 11 12
9 9 8 7 6 8 10 10 10 11 11 10 9 8 8 7 6 5 5 4 4 3 3 2 2 1 2 2 3 3 4 4 4 5 6 7 7 8 10 12 10 11 11 12
Wind_Direction
290 260 191 252 262 242 218 233 252 282 347 45 79 48 43 61 55 33 17 10 2 350 341 340 340 339 339 335 332 331 327 323 318 318 319 322 323 322 325 325 325 320 320 319
290 156 206 254 238 238 244 241 256 284 320 95 65 47 43 67 53 27 10 3 352 346 341 340 337 336 334 330 330 326 318 313 315 321 324 325 324 326 325 322 318 318 318 316
290 263 273 275 227 194 207 209 227 255 113 76 38 26 46 78 58 27 13 356 346 342 338 332 331 332 329 329 324 316 311 312 320 323 324 324 326 325 321 318 317 317 314 313
300 330 276 248 6 107 195 220 212 213 85 84 57 52 82 77 61 30 13 352 341 333 326 321 324 327 326 323 314 310 313 322 324 321 320 322 321 320 319 317 317 314 314 316
306 293 275 193 188 165 186 261 188 173 130 88 53 72 85 64 65 51 21 354 336 329 324 327 331 333 327 317 312 316 328 329 325 322 323 324 325 324 323 321 320 318 320 321
197 250 262 240 139 105 88 256 139 128 118 91 56 347 141 94 69 49 20 356 341 334 331 332 332 329 319 315 320 332 334 329 324 324 325 327 330 330 330 331 332 331 329 329
218 239 266 141 132 126 165 238 137 125 118 110 124 145 119 95 72 43 13 351 350 341 336 334 325 317 314 318 330 332 330 325 325 327 329 334 337 338 340 342 341 337 337 339
204 232 256 148 149 189 195 124 125 118 115 116 113 108 100 90 76 41 9 356 355 343 332 326 318 316 319 328 329 331 330 328 330 332 338 347 342 342 341 342 342 341 344 349
204 219 162 160 176 148 129 134 123 117 119 123 122 117 111 102 74 40 16 358 348 338 326 324 317 320 329 328 334 334 332 332 332 336 342 346 346 344 343 343 346 351 353 355
272 241 177 170 127 135 131 121 115 121 122 124 126 125 127 120 80 37 11 352 344 337 327 318 316 329 329 330 338 334 333 333 337 342 346 347 349 348 349 346 352 356 356 356
250 198 135 172 154 140 116 115 116 117 118 124 127 133 136 125 87 35 354 342 334 320 308 311 324 333 332 340 340 335 333 335 340 345 343 346 351 352 354 351 6 8 355 351
228 194 175 187 161 138 134 137 135 129 123 124 132 138 134 119 96 17 326 315 314 314 318 321 329 330 334 343 341 337 338 340 343 344 346 347 345 348 360 4 7 11 14 18
133 113 119 135 137 131 138 138 135 134 136 134 131 129 127 133 153 282 297 310 318 315 314 322 333 332 336 342 340 338 335 337 343 345 343 346 350 348 346 353 4 6 6 8
117 106 110 129 139 135 130 128 123 121 125 129 129 128 134 145 174 295 312 308 300 304 318 337 334 330 333 338 338 336 334 338 345 332 332 335 339 340 342 344 344 345 353 358
161 140 147 136 127 125 128 130 130 133 135 136 136 139 148 161 211 283 287 285 304 320 338 336 330 328 332 337 338 334 333 329 331 328 328 329 330 331 333 336 334 330 329 341
151 126 137 141 142 143 147 150 153 159 158 153 153 161 164 170 236 267 273 321 340 324 317 319 323 324 332 336 336 333 330 339 346 337 328 326 325 325 324 322 321 319 319 315
149 159 163 165 163 166 169 168 165 164 162 163 167 159 159 191 247 257 329 356 316 291 289 317 318 318 328 331 330 325 321 326 339 336 322 320 319 318 315 313 312 313 310 315
180 175 171 170 168 168 166 158 155 158 162 162 151 154 173 199 220 261 320 314 305 299 295 329 308 315 324 324 328 322 318 317 320 320 322 325 330 322 316 313 310 309 307 312
170 160 159 159 161 161 159 157 154 152 150 151 157 171 183 185 178 241 290 297 297 302 308 309 324 336 322 327 342 326 322 322 325 325 327 336 338 327 323 320 317 312 307 306
160 152 147 145 145 149 153 148 145 149 156 157 158 162 172 187 191 222 266 266 251 255 285 298 320 320 320 326 344 332 325 326 328 332 336 337 334 332 331 329 327 322 317 310
154 148 146 148 148 150 153 153 156 160 161 161 164 171 179 182 184 200 239 272 242 250 296 325 340 314 318 338 347 333 327 329 332 335 339 339 336 335 333 333 332 332 328 322
156 153 153 153 152 154 155 155 155 154 156 161 163 163 168 182 197 215 229 232 264 302 310 312 309 322 338 352 340 329 331 335 338 339 340 339 338 336 335 334 335 336 334 330
161 160 160 161 159 151 146 151 156 160 166 170 172 174 181 188 186 194 225 203 217 285 302 285 315 334 349 359 335 332 334 336 337 339 339 337 335 334 332 333 335 334 334 334
163 161 158 147 135 142 157 165 159 162 166 168 174 175 174 178 197 209 211 230 251 278 283 294 323 341 357 354 333 333 332 327 327 334 336 335 334 332 331 333 334 333 334 335
159 153 149 150 158 168 165 151 147 152 159 168 174 179 183 182 184 176 169 200 242 265 276 296 321 346 358 332 330 329 326 325 333 341 337 335 334 332 332 333 334 333 335 337
160 164 167 172 169 162 159 162 170 174 177 181 185 187 187 188 192 187 190 210 228 243 246 255 287 326 328 324 323 323 321 326 336 335 331 333 330 330 330 331 330 333 335 336
148 154 155 159 164 162 164 172 177 181 184 184 183 182 182 182 183 190 198 205 211 218 222 228 234 254 282 302 310 314 316 318 322 325 330 330 328 327 327 326 329 333 335 335